Location: *
(40.4270°N, 9.4940°E)
Time: 23:40:42
(UTC+02:00)

Daily predictions for brighter satellites

Satellite Brightness Start Highest point End
(mag) Time Altitude Azimuth Time Altitude Azimuth Time Altitude Azimuth
H-2A R/B 4.5 19:56:04 10° WSW 20:01:29 41° SSE 20:36:13 10° ESE
Abrixas rocket 2.3 20:32:43 10° SW 20:35:57 57° SE 20:39:11 10° ENE
Cosmos 1869 Rocket 4.1 20:31:51 10° N 20:36:06 41° ENE 20:40:20 10° SSE
ATLAS CENTAUR R/B 1.8 20:34:49 10° NW 20:37:08 65° SW 20:42:25 10° SE
USA 186 2.4 20:34:59 10° SE 20:37:19 28° ENE 20:39:48 10° N
Atlas Centaur 2 4.3 20:33:36 10° S 20:37:53 17° SSE 20:42:32 10° ESE
CZ-2D R/B 3.5 20:34:26 10° SSE 20:38:14 54° ENE 20:42:03 10° N
FALCON 9 R/B 2.2 20:36:09 10° SW 20:38:14 18° S 20:39:52 10° SE
Cosmos 1151 Rocket 4.1 20:39:58 10° SSW 20:44:11 50° W 20:48:24 10° N
Meteor 1-29 4.3 20:43:10 10° NE 20:45:56 22° E 20:48:39 10° SSE
Cosmos 1825 3.9 20:43:39 10° NNE 20:46:12 17° ENE 20:48:42 10° ESE
Cosmos 1331 Rocket 4.1 20:41:50 10° SSW 20:47:08 87° WNW 20:52:29 10° NNE
Cosmos 2360 4.3 20:42:29 10° S 20:48:04 58° ESE 20:53:42 10° NNE
CENTAUR R/B 3.1 20:43:39 10° SW 20:49:37 64° NW 20:56:27 10° NNE
Cosmos 1939 Rocket 4.1 20:46:21 10° SE 20:49:41 25° ENE 20:52:59 10° NNE
Gblst 52 Del rocket 4.3 20:46:32 10° NW 20:52:29 80° SW 20:57:54 10° SE
OAO 3 Rocket 4.0 20:49:24 10° SW 20:53:50 34° SSE 20:58:00 12° ESE
Resurs 01 Rocket 2.0 20:54:50 10° S 20:59:16 67° W 21:03:42 10° NNW
Helios 1A 3.1 21:00:51 10° SSE 21:05:00 60° ENE 21:09:13 10° N
ERS-1 Rocket 4.2 21:02:11 13° ESE 21:05:34 25° ENE 21:09:39 10° NNE
Cosmos 2026 Rocket 4.4 20:59:40 10° N 21:05:38 44° ENE 21:11:28 10° SSE
Cosmos 1486 Rocket 4.0 21:01:49 10° NNW 21:07:04 73° ENE 21:12:17 10° SSE
CZ-4B DEB 3.2 21:06:13 15° SE 21:08:23 40° ENE 21:11:17 10° N
Cosmos 1697 Rocket 4.2 21:11:49 10° SW 21:17:05 40° WNW 21:22:23 10° N
SAR-Lupe-4 3.5 21:15:24 11° SSE 21:18:52 84° ENE 21:22:29 10° NNW
Cosmos 1634 Rocket 4.0 21:16:17 10° S 21:22:34 82° E 21:28:55 10° N
SeaSat 1 3.9 21:21:02 15° E 21:23:38 23° NE 21:27:29 10° N
Cosmos 1092 Rocket 4.2 21:18:41 10° N 21:25:02 76° W 21:31:21 10° S
Cosmos 1655 Rocket 4.2 21:19:42 10° N 21:25:58 53° E 21:30:56 16° SSE
Cosmos 1408 2.6 21:26:33 10° N 21:30:13 59° E 21:32:08 25° SSE
Cosmos 1455 3.8 21:28:36 10° SSW 21:32:09 37° WNW 21:35:42 10° N
DELTA 2 R/B (1) 4.2 21:27:12 10° W 21:32:29 43° SSW 21:35:40 22° SE
Cosmos 220 Rocket 4.1 21:28:37 10° NNW 21:33:04 66° ENE 21:35:33 25° SE
Cosmos 1869 3.5 21:29:44 10° SSW 21:33:39 73° W 21:37:36 10° N
Cosmos 2263 Rocket 2.9 21:29:41 10° N 21:34:52 38° ENE 21:37:31 24° ESE
SAR-Lupe-1 4.3 21:33:37 15° S 21:36:26 67° WSW 21:40:00 10° NNW
Cosmos 2322 Rocket 2.1 21:31:42 10° S 21:37:14 66° ESE 21:42:49 10° NNE
Cosmos 1503 Rocket 4.0 21:32:52 10° NNW 21:38:09 71° ENE 21:41:17 24° SSE
ERBS 2.4 21:34:51 10° NW 21:38:18 67° NE 21:39:22 40° ESE
Cosmos 1354 Rocket 3.9 21:36:01 10° NNW 21:41:19 77° ENE 21:44:27 25° SSE
Meteor 2-20 Rocket 4.4 21:35:54 10° N 21:42:03 90° WNW 21:47:42 13° S
H-2A R/B 3.6 21:41:33 17° E 21:42:35 18° ENE 21:45:51 10° NNE
Cosmos 2360 Rocket 2.9 21:47:51 29° ESE 21:48:39 31° ESE 21:53:32 10° NE
Meteor 2-10 Rocket 4.2 21:46:33 27° SE 21:49:11 42° E 21:54:37 10° NNE
Cosmos 1980 Rocket 3.8 21:44:18 10° SW 21:49:31 37° WNW 21:54:47 10° N
Terra 4.0 21:51:22 11° ENE 21:51:44 11° ENE 21:53:15 10° NE
Cosmos 1933 3.2 21:51:30 35° SSE 21:53:03 65° E 21:57:03 10° NNE
NOAA 11 4.4 21:55:35 33° SE 21:57:49 55° ENE 22:03:11 10° N
USA 234 3.6 21:57:58 25° SSE 22:01:51 59° SW 22:08:20 10° NW
YAOGAN 6 2.7 22:02:26 46° S 22:03:25 73° W 22:07:04 10° NNW
SL-16 R/B 2.3 21:58:21 10° SSW 22:04:00 77° WNW 22:09:43 10° NNE
Cosmos 1733 Rocket 3.1 21:59:35 10° N 22:04:02 77° W 22:05:57 34° S
Cosmos 968 Rocket 4.1 22:00:29 10° N 22:05:18 38° ENE 22:06:16 35° E
Cosmos 2279 Rocket 4.1 21:59:06 10° S 22:05:20 79° W 22:11:37 10° N
SL-08 RB Rocket 4.4 22:05:21 35° E 22:05:43 35° ENE 22:09:53 10° N
MOS 1-B Rocket 4.3 22:04:09 35° ESE 22:06:08 46° ENE 22:11:33 10° N
Envisat 4.1 22:02:11 10° SSW 22:06:52 41° W 22:11:41 10° NNW
Cosmos 1862 Rocket 3.7 22:05:44 21° SSW 22:08:39 75° W 22:13:09 10° N
Milstar 3 3.7 22:02:40 10° WSW 22:08:47 28° S 22:10:13 26° S
Abrixas rocket 4.1 22:09:58 10° W 22:12:54 29° NNW 22:14:25 20° NNE
Lacrosse 4 Rocket 1.7 22:08:56 10° NNW 22:13:14 67° WSW 22:14:12 50° S
ATLAS 5 CENTAUR R/B 2.8 22:11:56 10° NNW 22:17:45 50° NE 22:19:40 38° E
SPOT 5 2.9 22:17:53 55° ESE 22:18:41 65° ENE 22:23:22 10° N
Meteor 1-26 Rocket 4.2 22:17:10 43° SSE 22:18:57 65° E 22:24:40 10° NNE
MetOp-B 4.0 22:17:48 46° SSE 22:19:28 83° ENE 22:24:51 10° NNW
Cosmos 1862 4.1 22:16:03 10° NNW 22:19:56 48° W 22:21:09 35° SW
YAOGAN 11 4.0 22:19:54 67° SSE 22:20:27 84° ENE 22:24:51 10° NNW
Cosmos 1825 4.0 22:18:31 10° NNW 22:21:49 28° W 22:23:38 19° SW
Cosmos 2278 Rocket 4.5 22:23:53 10° NNE 22:25:19 11° NE 22:26:45 10° ENE
Atlas Centaur 2 3.6 22:19:38 10° SW 22:26:12 34° SSE 22:26:12 34° SSE
Okean 1-7 4.2 22:27:56 31° NE 22:27:56 31° NE 22:30:38 10° NNE
ARGOS 3.0 22:25:49 56° SE 22:26:54 75° ENE 22:32:16 10° N
Cosmos 1703 Rocket 3.7 22:28:52 60° ENE 22:28:52 60° ENE 22:32:48 10° NNE
Cosmos 2221 Rocket 4.4 22:30:18 38° NE 22:30:18 38° NE 22:33:23 10° NNE
SPOT 1/Viking Rocket 3.6 22:28:56 56° E 22:29:26 58° ENE 22:34:34 10° N
OAO 3 Rocket 4.0 22:32:16 10° WSW 22:35:49 38° SW 22:35:49 38° SW
Cosmos 1844 Rocket 3.8 22:33:57 10° N 22:38:45 28° ENE 22:39:04 28° ENE
ERS-1 Rocket 4.1 22:42:12 27° SW 22:44:08 37° W 22:48:48 10° NNW
USA 229 DEB 3.6 22:43:13 53° SSE 22:44:32 62° ESE 22:51:21 10° NE
USA 229 3.6 22:43:27 54° SSE 22:44:38 62° ESE 22:51:26 10° NE
Meteor 1-14 Rocket 4.1 22:45:32 10° N 22:51:12 84° W 22:51:51 71° S
Cosmos 2219 Rocket 4.1 22:58:40 16° NE 22:58:40 16° NE 22:59:58 10° NE
SeaSat 1 2.9 23:00:49 50° WSW 23:00:51 50° WSW 23:05:40 10° NW
Cosmos 1777 Rocket 4.3 22:57:23 10° NNW 23:02:00 56° NE 23:02:00 56° NE
Cosmos 2237 4.3 23:07:47 69° NE 23:07:47 69° NE 23:12:49 10° NNE
Meteor 1-25 Rocket 4.2 23:05:59 10° NNW 23:11:26 76° WNW 23:11:26 76° WNW
Landsat 7 4.4 23:14:38 56° NNW 23:14:38 56° NNW 23:18:25 10° NNW
H-2A R/B 3.3 23:15:52 37° N 23:15:52 37° N 23:18:33 10° NNW
COSMOS 2428 3.3 23:17:15 48° NE 23:17:15 48° NE 23:21:20 10° NNE
DMSP B5D2-2 4.4 23:10:30 10° NNE 23:14:48 61° NNE 23:14:48 61° NNE
Cosmos 2263 Rocket 3.5 23:13:52 10° NW 23:18:37 29° WSW 23:19:14 29° WSW
Cosmos 1867 4.0 23:16:00 10° NW 23:20:39 58° WNW 23:20:39 58° WNW
H-2A R/B 2.6 23:22:11 51° WNW 23:22:11 51° WNW 23:26:28 10° NNW
Terra 2.8 23:30:14 45° NNW 23:30:14 45° NNW 23:33:33 10° NNW
Cosmos 2360 Rocket 3.5 23:29:28 22° WSW 23:32:29 37° WNW 23:37:45 10° N
Cosmos 1844 4.3 23:31:40 10° NNW 23:36:10 51° NNE 23:36:10 51° NNE
CZ-4C R/B 3.7 23:36:33 10° NNW 23:43:08 40° NE 23:44:14 38° ENE
